Regional Weather Roundup
Issued by NWS Green Bay, WI

Home | Current Version | Previous Version | Text Only | Print | Product List | Glossary On
Versions: 1 2 3 4 5 6 7 8 9 10 11 12 13 14 15 16 17 18 19 20 21 22 23 24 25 26 27 28 29 30 31 32 33 34 35 36 37 38 39 40 41 42 43 44 45 46 47 48 49 50
464
ASUS43 KGRB 200211
RWRGRB

NORTH-CENTRAL AND NORTHEAST WISCONSIN REGIONAL WEATHER ROUNDUP
NATIONAL WEATHER SERVICE GREEN BAY WI
900 PM CDT THU OCT 19 2017

WIZ005-009-010>012-018-019-200300-
NORTH CENTRAL WISCONSIN

CITY           SKY/WX    TMP DP  RH WIND       PRES   REMARKS
IRONWOOD       CLEAR     60  33  36 S7        29.96S
MANITOWISH WTR PTCLDY    53  34  48 S7        30.00S
ARBOR VITAE    CLEAR     57  35  44 S8        30.01S
EAGLE RIVER    CLEAR     53  30  41 S3        30.02S
LAND O LAKES   CLOUDY    54  31  42 S3        30.02F
RHINELANDER    CLEAR     56  34  43 SW6       30.03F
PHILLIPS       CLEAR     55  35  47 S7        30.00S
ANTIGO         CLEAR     49  35  57 S8        30.06S
TOMAHAWK       CLEAR     47  35  62 CALM      30.03F
MERRILL        CLEAR     56  35  44 S5        30.05S
$$

WIZ013-073-200300-
NORTHEAST WISCONSIN

CITY           SKY/WX    TMP DP  RH WIND       PRES   REMARKS
IRON MOUNTAIN  PTCLDY    55  30  38 S7        30.02F
MARINETTE      CLEAR     55  41  59 SW5       30.07S
OCONTO         CLEAR     50  40  69 CALM      30.06F
$$

WIZ017-030-035>037-045-200300-
CENTRAL WISCONSIN

CITY           SKY/WX    TMP DP  RH WIND       PRES   REMARKS
MEDFORD        CLEAR     49  36  59 S7        30.03S
WAUSAU         CLEAR     54  35  48 SE3       30.04R
MOSINEE        CLEAR     50  36  57 S8        30.06F
MARSHFIELD     CLEAR     54  33  45 S8        30.04S
WISC RAPIDS    CLEAR     56  36  47 S7        30.06F
STEVENS POINT  CLEAR     51  35  53 S5        30.06F
WAUPACA        CLEAR     55  34  45 CALM      30.08S
SHAWANO        CLEAR     58  34  40 CALM      30.06S
CLINTONVILLE   CLEAR     54  36  50 SW7       30.07S
WAUTOMA        CLEAR     56  36  47 S3        30.09S
$$

WIZ038-039-048-051-200300-
FOX VALLEY

CITY           SKY/WX    TMP DP  RH WIND       PRES   REMARKS
NWS GREEN BAY  CLEAR     56  38  50 S7        30.08F
APPLETON       PTCLDY    55  32  41 S9        30.07F
OSHKOSH        CLEAR     53  37  54 S8        30.09F
FOND DU LAC    CLEAR     55  34  45 S7        30.10F
$$

WIZ022-050-052-200300-
EAST CENTRAL WISCONSIN

CITY           SKY/WX    TMP DP  RH WIND       PRES   REMARKS
EPHRAIM        FAIR      53  35  50 SW3       30.07S
WASHINGTON ISL MOCLDY    56  39  53 SW8       30.05F
STURGEON BAY   CLEAR     54  39  57 S8        30.09S
MANITOWOC      CLEAR     52  37  56 S5        30.11S
SHEBOYGAN      CLEAR     49  38  65 S7        30.11F
$$

LMZ563-521-522-541>543-200300-
LAKESHORE

STATION/POSITION TIME  TEMP    WIND        PRES    VSBY  WAVE
                       AIR SEA DIR/SP/G                  HT/PER
                 (UTC) (F)     (DEG/KT/KT) (MB)    (MI)  (FT/S)
SHEBOYGAN LKSHOR 0200   58     210/ 13/ 15 1019.6F
KEWAUNEE LKSHORE 0142   54     190/  6/  8 1018.2F
NORTHPORT PIER   0140   55     180/  3/  7 1017.9F
N MID LAKE BUOY  0150   59 58  210/ 16/ 17 1018.5R         3/ 5
S GREEN BAY BUOY 0200   60 58  180/ 12/ 14 1018.0
SISTER BAY LKSHO 0204   58     210/ 12/ 16   N/A
MENOMINEE LKSHOR 0142   59     180/  7/  9 1017.6F
$$




USA.gov is the U.S. government's official web portal to all federal, state and local government web resources and services.